Find Starlink 37830

NORAD ID: 69664 Int'l Des: 2026-143 Owner: SPXS Country: US Constellation: starlink operational
LEOCIRCULARRETROGRADE

現在のビュー

3D地球を読み込み中...

About Starlink 37830

Starlink 37830 (NORAD 69664) is a starlink constellation satellite (v2 mini) launched Jun 21, 2026 by SPXS of US. It operates in LEO, CIRCULAR, RETROGRADE orbit with a mass of 575.00 kg.

次回通過

Passes for default location (London). Set your location on the main map for personalized predictions.

高度履歴

Loading altitude history...

軌道要素

1 69664U 26143R 26237.10591942 .00027085 00000-0 83828-3 0 9992
2 69664 97.2824 280.6137 0001071 94.6166 265.5199 15.33445163 11096
Epoch: Aug 25, 2026 • Age: 11 hours

現在のステータス

高度 473.0 km
遠地点 / 近地点 N/A
速度 7.63 km/s
衛星直下点 -18.53°S, 108.32°E
打ち上げ日 Jun 21, 2026
運用期間 0.1 years
タイプ internet

技術仕様

分類 Payload
質量 575.00 kg
乾燥質量 530.00 kg
総質量 575.00 kg
長さ 0.30 m
直径 4.10 m
スパン 29.00 m
形状 Box + pan
製造者 SPXS
バスタイプ Starlink V2MO
フェーズステータス In Orbit
所有者/国 SPXS/US

Most Searched